Вернуться в каталог

ASTRON

АктивенНаукаHEO
NORAD 13901·PAYLOAD·🇷🇺 Russia

Запущен Mar 23, 1983 с Baikonur Cosmodrome

Loading…

Ближайшие Пролёты (ближайшие 24 часа)

TLE

СвежийSource: Space-Track

Эпоха: Sep 14, 2026, 12:59 UTC

1 13901U 83020A   26257.54156691 -.00000214  00000-0  00000-0 0  9994
2 13901  77.2629  54.8426 7302350  53.9919   0.2998  0.24294882 11362

Отслеживайте ASTRON в реальном времени с AllMySat

Download on the App Store